This is the latest recevied weather packets stored in our database for station/object SV9TNF-51. If no packets are shown the sender has not sent any weather packets the latest 10 day(s).
| Time | Temp. | Humidity | Pressure | Rain* | Wind** | Luminosity | Snow |
|---|---|---|---|---|---|---|---|
| 1788564147 | 25.56° C | 51% | 1012.5 hPa | 0 mm | 1.79 m/s, 116° | - | - |
| 1788563847 | 25.56° C | 51% | 1012.5 hPa | 0 mm | 1.79 m/s, 111° | - | - |
| 1788563547 | 25.56° C | 51% | 1012.5 hPa | 0 mm | 3.13 m/s, 220° | - | - |
| 1788563247 | 25.56° C | 51% | 1012.5 hPa | 0 mm | 1.34 m/s, 149° | - | - |
| 1788562947 | 26.11° C | 52% | 1012.5 hPa | 0 mm | 0 m/s | - | - |
| 1788562647 | 26.11° C | 53% | 1012.5 hPa | 0 mm | 2.68 m/s, 135° | - | - |
| 1788562347 | 26.11° C | 51% | 1012.5 hPa | 0 mm | 2.68 m/s, 86° | - | - |
| 1788562046 | 25.56° C | 49% | 1013.2 hPa | 0 mm | 1.34 m/s, 134° | - | - |
| 1788561746 | 26.11° C | 48% | 1013.2 hPa | 0 mm | 3.58 m/s, 53° | - | - |
| 1788561446 | 26.67° C | 51% | 1013.2 hPa | 0 mm | 0 m/s | - | - |
| 1788561147 | 26.11° C | 48% | 1013.2 hPa | 0 mm | 0.89 m/s, 139° | - | - |
| 1788560846 | 25.56° C | 45% | 1013.2 hPa | 0 mm | 3.13 m/s, 150° | - | - |
| 1788560546 | 26.11° C | 44% | 1013.6 hPa | 0 mm | 1.79 m/s, 151° | - | - |
| 1788560263 | 26.67° C | 44% | 1013.6 hPa | 0 mm | 2.68 m/s, 144° | - | - |
| 1788559946 | 26.11° C | 44% | 1013.6 hPa | 0 mm | 6.26 m/s, 358° | - | - |
| 1788559646 | 26.11° C | 47% | 1013.6 hPa | 0 mm | 1.79 m/s, 148° | - | - |
| 1788559346 | 26.11° C | 45% | 1013.6 hPa | 0 mm | 6.71 m/s, 356° | - | - |
| 1788559046 | 26.67° C | 47% | 1013.6 hPa | 0 mm | 3.13 m/s, 349° | - | - |
| 1788558746 | 26.67° C | 44% | 1013.6 hPa | 0 mm | 2.68 m/s, 76° | - | - |
| 1788558445 | 26.67° C | 42% | 1013.6 hPa | 0 mm | 4.02 m/s, 0° | - | - |
| 1788558145 | 26.67° C | 43% | 1013.6 hPa | 0 mm | 0 m/s | - | - |
| 1788557845 | 26.67° C | 42% | 1013.6 hPa | 0 mm | 0 m/s | - | - |
| 1788557545 | 26.67° C | 43% | 1013.6 hPa | 0 mm | 0 m/s | - | - |
| 1788557245 | 26.67° C | 43% | 1013.6 hPa | 0 mm | 0 m/s | - | - |
| 1788556945 | 26.67° C | 42% | 1013.6 hPa | 0 mm | 1.34 m/s, 145° | - | - |
* Rain latest hour (hover to see other rain measurements)
** Current wind speed in m/s (hover to see current wind gust speed)